EJU62FU EGKK-LPPR

Flight info

Callsign EJU62FU
Flight time 1h 53m
Altitude 35000
Route NOVMA L620 SAM M195 LORKU DCT EBOMO DCT COQUE DCT KORUL DCT ELTEP T328 ASPOR
Aircraft A320/M-SDE3FGHIRWY/LB1

Departure

Time 2026-04-15 09:10
Airport London Gatwick Airport (EGKK)

Arrival

Time 2026-04-15 11:04
Airport Francisco de Sá Carneiro Airport (LPPR)
Time Latitude Longitude Altitude Speed Heading
2026-04-15 08:33 51.16029 -0.16955 212 ft 0 kts 333°
2026-04-15 08:59 51.16014 -0.16943 217 ft 4 kts 333°
2026-04-15 09:00 51.15991 -0.16925 215 ft 4 kts 319°
2026-04-15 09:00 51.15979 -0.16892 211 ft 4 kts 267°
2026-04-15 09:00 51.15981 -0.16867 213 ft 1 kts 255°
2026-04-15 09:00 51.15982 -0.16865 213 ft 0 kts 255°
2026-04-15 09:02 51.15981 -0.16865 213 ft 1 kts 255°
2026-04-15 09:03 51.15977 -0.16891 205 ft 2 kts 255°
2026-04-15 09:03 51.15974 -0.16911 215 ft 2 kts 255°
2026-04-15 09:03 51.15966 -0.16955 207 ft 6 kts 250°
2026-04-15 09:03 51.15933 -0.17024 213 ft 10 kts 222°
2026-04-15 09:04 51.15871 -0.17077 207 ft 11 kts 197°
2026-04-15 09:04 51.15813 -0.17135 213 ft 11 kts 249°
2026-04-15 09:04 51.15797 -0.17257 210 ft 12 kts 257°
2026-04-15 09:04 51.15779 -0.17388 205 ft 12 kts 258°
2026-04-15 09:05 51.15757 -0.17496 213 ft 9 kts 225°
2026-04-15 09:05 51.15696 -0.17499 210 ft 10 kts 167°
2026-04-15 09:05 51.15625 -0.17472 215 ft 11 kts 166°
2026-04-15 09:05 51.15543 -0.17442 209 ft 13 kts 167°
2026-04-15 09:06 51.15459 -0.17412 206 ft 12 kts 168°
2026-04-15 09:06 51.15375 -0.17383 211 ft 13 kts 167°
2026-04-15 09:06 51.15287 -0.17352 214 ft 12 kts 167°
2026-04-15 09:06 51.15219 -0.17293 208 ft 12 kts 142°
2026-04-15 09:07 51.15178 -0.17201 212 ft 10 kts 91°
2026-04-15 09:07 51.15195 -0.17101 205 ft 9 kts 77°
2026-04-15 09:07 51.15207 -0.17014 208 ft 7 kts 78°
2026-04-15 09:07 51.15217 -0.16941 214 ft 6 kts 78°
2026-04-15 09:08 51.15219 -0.16926 209 ft 0 kts 78°
2026-04-15 09:08 51.15224 -0.16890 208 ft 6 kts 78°
2026-04-15 09:08 51.15225 -0.16835 208 ft 4 kts 104°
2026-04-15 09:09 51.15211 -0.16811 213 ft 2 kts 146°
2026-04-15 09:09 51.15177 -0.16800 213 ft 8 kts 173°
2026-04-15 09:09 51.15121 -0.16831 210 ft 10 kts 239°
2026-04-15 09:09 51.15091 -0.17039 210 ft 45 kts 257°
2026-04-15 09:10 51.14973 -0.17899 215 ft 111 kts 258°
2026-04-15 09:10 51.14768 -0.19385 216 ft 161 kts 257°
2026-04-15 09:10 51.14522 -0.21131 832 ft 158 kts 253°
2026-04-15 09:10 51.14290 -0.22824 1570 ft 160 kts 252°
2026-04-15 09:11 51.14036 -0.24641 1919 ft 179 kts 252°
2026-04-15 09:11 51.13744 -0.26696 2171 ft 203 kts 253°
2026-04-15 09:11 51.13415 -0.29021 2556 ft 227 kts 254°
2026-04-15 09:11 51.13056 -0.31586 3122 ft 244 kts 254°
2026-04-15 09:12 51.12689 -0.34254 4005 ft 248 kts 254°
2026-04-15 09:12 51.12320 -0.36955 4927 ft 252 kts 254°
2026-04-15 09:12 51.11943 -0.39702 5783 ft 255 kts 254°
2026-04-15 09:12 51.11568 -0.42355 6589 ft 258 kts 250°
2026-04-15 09:13 51.10871 -0.44969 7416 ft 258 kts 240°
2026-04-15 09:13 51.10072 -0.47540 8238 ft 261 kts 240°
2026-04-15 09:13 51.09262 -0.50139 9074 ft 264 kts 240°
2026-04-15 09:13 51.08437 -0.52769 9933 ft 266 kts 240°
2026-04-15 09:14 51.07504 -0.55316 10401 ft 279 kts 228°
2026-04-15 09:14 51.06135 -0.57666 10594 ft 301 kts 225°
2026-04-15 09:14 51.04646 -0.60135 11031 ft 314 kts 225°
2026-04-15 09:14 51.03116 -0.62654 11710 ft 319 kts 225°
2026-04-15 09:15 51.01566 -0.65200 12434 ft 322 kts 225°
2026-04-15 09:15 51.00007 -0.67765 13165 ft 325 kts 225°
2026-04-15 09:15 50.98431 -0.70358 13889 ft 327 kts 225°
2026-04-15 09:15 50.96845 -0.72969 14536 ft 330 kts 225°
2026-04-15 09:16 50.95244 -0.75603 15196 ft 333 kts 225°
2026-04-15 09:16 50.93636 -0.78251 15833 ft 335 kts 225°
2026-04-15 09:16 50.92008 -0.80925 16461 ft 338 kts 225°
2026-04-15 09:16 50.90399 -0.83568 17070 ft 340 kts 225°
2026-04-15 09:17 50.88747 -0.86279 17681 ft 343 kts 224°
2026-04-15 09:17 50.87081 -0.89002 18297 ft 346 kts 224°
2026-04-15 09:17 50.85401 -0.91746 18821 ft 348 kts 224°
2026-04-15 09:17 50.84366 -0.93435 19139 ft 349 kts 224°
2026-04-15 09:18 50.83014 -0.95639 19532 ft 352 kts 224°
2026-04-15 09:18 50.81306 -0.98427 20065 ft 354 kts 224°
2026-04-15 09:18 50.79590 -1.01231 20580 ft 356 kts 224°
2026-04-15 09:18 50.77861 -1.04048 21080 ft 358 kts 224°
2026-04-15 09:19 50.76116 -1.06877 21574 ft 360 kts 224°
2026-04-15 09:19 50.74358 -1.09725 22063 ft 363 kts 224°
2026-04-15 09:19 50.72594 -1.12589 22537 ft 365 kts 224°
2026-04-15 09:19 50.70817 -1.15470 23005 ft 367 kts 224°
2026-04-15 09:20 50.69025 -1.18370 23470 ft 370 kts 224°
2026-04-15 09:20 50.67249 -1.21242 23872 ft 372 kts 224°
2026-04-15 09:20 50.65436 -1.24169 24267 ft 374 kts 224°
2026-04-15 09:20 50.63616 -1.27103 24670 ft 375 kts 224°
2026-04-15 09:21 50.61791 -1.30043 25066 ft 376 kts 224°
2026-04-15 09:21 50.59960 -1.32992 25451 ft 377 kts 224°
2026-04-15 09:21 50.58119 -1.35953 25839 ft 379 kts 224°
2026-04-15 09:21 50.56274 -1.38915 26220 ft 380 kts 224°
2026-04-15 09:22 50.54420 -1.41888 26595 ft 381 kts 223°
2026-04-15 09:22 50.53164 -1.43898 26838 ft 382 kts 223°
2026-04-15 09:22 50.51299 -1.46884 27216 ft 383 kts 223°
2026-04-15 09:22 50.49427 -1.49876 27581 ft 385 kts 223°
2026-04-15 09:23 50.47548 -1.52876 27949 ft 386 kts 223°
2026-04-15 09:23 50.45662 -1.55885 28304 ft 387 kts 223°
2026-04-15 09:23 50.43766 -1.58901 28646 ft 389 kts 223°
2026-04-15 09:23 50.41862 -1.61923 28988 ft 390 kts 223°
2026-04-15 09:24 50.40028 -1.64831 29283 ft 391 kts 223°
2026-04-15 09:24 50.38110 -1.67872 29595 ft 393 kts 223°
2026-04-15 09:24 50.36184 -1.70919 29898 ft 394 kts 223°
2026-04-15 09:24 50.34251 -1.73977 30192 ft 396 kts 223°
2026-04-15 09:25 50.32312 -1.77044 30449 ft 397 kts 223°
2026-04-15 09:25 50.30367 -1.80121 30712 ft 398 kts 223°
2026-04-15 09:25 50.28428 -1.83187 31072 ft 396 kts 223°
2026-04-15 09:25 50.26493 -1.86240 31438 ft 394 kts 223°
2026-04-15 09:26 50.24563 -1.89278 31774 ft 393 kts 223°
2026-04-15 09:26 50.22638 -1.92307 32119 ft 392 kts 223°
2026-04-15 09:26 50.20719 -1.95322 32463 ft 391 kts 223°
2026-04-15 09:26 50.18805 -1.98325 32809 ft 390 kts 223°
2026-04-15 09:27 50.16975 -2.01187 33127 ft 389 kts 223°
2026-04-15 09:27 50.15064 -2.04166 33469 ft 387 kts 223°
2026-04-15 09:27 50.13159 -2.07131 33809 ft 386 kts 223°
2026-04-15 09:27 50.11300 -2.10027 34126 ft 386 kts 223°
2026-04-15 09:28 50.09403 -2.12976 34400 ft 385 kts 223°
2026-04-15 09:28 50.07504 -2.15924 34663 ft 385 kts 223°
2026-04-15 09:28 50.05612 -2.18864 34903 ft 385 kts 223°
2026-04-15 09:28 50.03714 -2.21810 35044 ft 385 kts 223°
2026-04-15 09:29 49.99950 -2.27642 35080 ft 384 kts 223°
2026-04-15 09:29 49.96162 -2.33494 35077 ft 384 kts 223°
2026-04-15 09:30 49.92083 -2.38803 35081 ft 383 kts 212°
2026-04-15 09:30 49.87549 -2.43157 35082 ft 383 kts 212°
2026-04-15 09:31 49.83018 -2.47502 35079 ft 383 kts 212°
2026-04-15 09:31 49.78482 -2.51854 35075 ft 383 kts 212°
2026-04-15 09:32 49.73946 -2.56183 35076 ft 383 kts 212°
2026-04-15 09:32 49.69406 -2.60509 35073 ft 383 kts 212°
2026-04-15 09:33 49.64871 -2.64832 35074 ft 383 kts 212°
2026-04-15 09:33 49.60334 -2.69146 35075 ft 383 kts 212°
2026-04-15 09:34 49.55809 -2.73433 35077 ft 383 kts 212°
2026-04-15 09:34 49.51306 -2.77693 35079 ft 382 kts 212°
2026-04-15 09:35 49.46771 -2.81967 35082 ft 382 kts 212°
2026-04-15 09:35 49.42240 -2.86238 35084 ft 382 kts 212°
2026-04-15 09:36 49.37720 -2.90484 35081 ft 381 kts 212°
2026-04-15 09:36 49.33192 -2.94734 35079 ft 381 kts 212°
2026-04-15 09:37 49.28737 -2.98894 35082 ft 381 kts 212°
2026-04-15 09:37 49.24213 -3.03115 35082 ft 380 kts 212°
2026-04-15 09:38 49.19693 -3.07318 35076 ft 380 kts 212°
2026-04-15 09:38 49.15174 -3.11516 35068 ft 380 kts 212°
2026-04-15 09:39 49.10657 -3.15705 35075 ft 380 kts 212°
2026-04-15 09:39 49.06141 -3.19882 35068 ft 379 kts 212°
2026-04-15 09:40 49.01624 -3.24048 35075 ft 379 kts 212°
2026-04-15 09:40 48.97111 -3.28208 35069 ft 379 kts 212°
2026-04-15 09:41 48.92596 -3.32359 35077 ft 379 kts 212°
2026-04-15 09:41 48.88087 -3.36500 35079 ft 379 kts 212°
2026-04-15 09:42 48.83575 -3.40630 35081 ft 378 kts 212°
2026-04-15 09:42 48.79062 -3.44745 35075 ft 378 kts 212°
2026-04-15 09:43 48.74556 -3.48850 35078 ft 378 kts 212°
2026-04-15 09:43 48.70051 -3.52962 35078 ft 378 kts 212°
2026-04-15 09:44 48.65544 -3.57057 35070 ft 378 kts 212°
2026-04-15 09:44 48.61030 -3.61137 35066 ft 378 kts 212°
2026-04-15 09:45 48.57232 -3.64567 35062 ft 378 kts 212°
2026-04-15 09:45 48.52710 -3.68637 35059 ft 378 kts 212°
2026-04-15 09:46 48.48555 -3.72377 35058 ft 378 kts 212°
2026-04-15 09:46 48.44036 -3.76449 35059 ft 379 kts 212°
2026-04-15 09:47 48.39537 -3.80479 35060 ft 379 kts 212°
2026-04-15 09:47 48.35003 -3.84534 35062 ft 379 kts 212°
2026-04-15 09:48 48.30471 -3.88588 35060 ft 379 kts 212°
2026-04-15 09:48 48.25924 -3.92641 35065 ft 379 kts 212°
2026-04-15 09:49 48.21388 -3.96677 35082 ft 379 kts 212°
2026-04-15 09:49 48.16860 -4.00699 35090 ft 379 kts 212°
2026-04-15 09:50 48.12329 -4.04713 35095 ft 379 kts 212°
2026-04-15 09:50 48.07793 -4.08726 35100 ft 379 kts 212°
2026-04-15 09:51 48.03273 -4.12706 35105 ft 378 kts 212°
2026-04-15 09:51 47.98727 -4.16698 35106 ft 378 kts 212°
2026-04-15 09:52 47.94197 -4.20674 35103 ft 378 kts 212°
2026-04-15 09:52 47.89681 -4.24623 35102 ft 378 kts 212°
2026-04-15 09:53 47.85152 -4.28588 35100 ft 377 kts 212°
2026-04-15 09:53 47.80641 -4.32561 35100 ft 377 kts 213°
2026-04-15 09:54 47.76181 -4.36676 35098 ft 376 kts 214°
2026-04-15 09:54 47.71771 -4.40817 35100 ft 376 kts 214°
2026-04-15 09:55 47.67330 -4.44942 35099 ft 376 kts 214°
2026-04-15 09:55 47.62887 -4.49045 35100 ft 376 kts 214°
2026-04-15 09:56 47.58451 -4.53129 35101 ft 376 kts 214°
2026-04-15 09:57 47.51848 -4.59180 35099 ft 376 kts 214°
2026-04-15 09:57 47.47389 -4.63261 35098 ft 376 kts 214°
2026-04-15 09:58 47.42956 -4.67311 35097 ft 376 kts 214°
2026-04-15 09:58 47.38533 -4.71355 35098 ft 376 kts 214°
2026-04-15 09:59 47.34109 -4.75392 35101 ft 376 kts 214°
2026-04-15 09:59 47.29647 -4.79446 35102 ft 376 kts 214°
2026-04-15 10:00 47.25189 -4.83486 35103 ft 376 kts 214°
2026-04-15 10:00 47.20727 -4.87517 35104 ft 376 kts 214°
2026-04-15 10:01 47.16329 -4.91474 35102 ft 376 kts 214°
2026-04-15 10:01 47.11867 -4.95496 35108 ft 377 kts 214°
2026-04-15 10:02 47.07391 -4.99517 35106 ft 377 kts 214°
2026-04-15 10:02 47.02923 -5.03535 35111 ft 377 kts 214°
2026-04-15 10:03 46.98581 -5.07451 35109 ft 377 kts 214°
2026-04-15 10:03 46.94108 -5.11476 35115 ft 378 kts 214°
2026-04-15 10:04 46.89657 -5.15464 35115 ft 378 kts 214°
2026-04-15 10:04 46.85176 -5.19472 35113 ft 378 kts 215°
2026-04-15 10:05 46.80683 -5.23481 35112 ft 378 kts 215°
2026-04-15 10:05 46.76912 -5.26831 35115 ft 379 kts 215°
2026-04-15 10:06 46.72406 -5.30827 35113 ft 380 kts 215°
2026-04-15 10:06 46.67890 -5.34834 35116 ft 380 kts 215°
2026-04-15 10:07 46.63366 -5.38842 35112 ft 381 kts 215°
2026-04-15 10:07 46.58835 -5.42853 35114 ft 382 kts 215°
2026-04-15 10:08 46.54333 -5.46822 35113 ft 382 kts 215°
2026-04-15 10:08 46.49754 -5.50836 35113 ft 383 kts 215°
2026-04-15 10:09 46.45216 -5.54819 35114 ft 384 kts 215°
2026-04-15 10:09 46.40640 -5.58839 35118 ft 385 kts 215°
2026-04-15 10:10 46.36049 -5.62862 35117 ft 386 kts 215°
2026-04-15 10:10 46.31447 -5.66882 35119 ft 387 kts 215°
2026-04-15 10:11 46.26827 -5.70900 35122 ft 388 kts 215°
2026-04-15 10:11 46.22205 -5.74925 35129 ft 388 kts 216°
2026-04-15 10:12 46.17571 -5.78954 35129 ft 389 kts 216°
2026-04-15 10:12 46.12922 -5.82981 35137 ft 390 kts 216°
2026-04-15 10:13 46.08263 -5.87006 35132 ft 390 kts 216°
2026-04-15 10:13 46.03595 -5.91035 35132 ft 391 kts 216°
2026-04-15 10:14 45.99032 -5.94964 35130 ft 392 kts 216°
2026-04-15 10:14 45.94254 -5.99068 35136 ft 393 kts 216°
2026-04-15 10:15 45.89585 -6.03066 35133 ft 394 kts 216°
2026-04-15 10:15 45.84877 -6.07103 35136 ft 394 kts 216°
2026-04-15 10:16 45.80221 -6.11075 35135 ft 395 kts 216°
2026-04-15 10:16 45.75450 -6.15148 35141 ft 396 kts 216°
2026-04-15 10:17 45.70710 -6.19190 35140 ft 397 kts 216°
2026-04-15 10:17 45.65962 -6.23228 35144 ft 398 kts 216°
2026-04-15 10:18 45.61194 -6.27260 35145 ft 398 kts 216°
2026-04-15 10:18 45.56420 -6.31294 35146 ft 399 kts 216°
2026-04-15 10:19 45.51627 -6.35343 35146 ft 400 kts 216°
2026-04-15 10:19 45.46866 -6.39350 35149 ft 400 kts 216°
2026-04-15 10:20 45.42037 -6.43412 35153 ft 401 kts 216°
2026-04-15 10:20 45.37231 -6.47449 35160 ft 402 kts 216°
2026-04-15 10:21 45.32468 -6.51447 35161 ft 403 kts 216°
2026-04-15 10:21 45.27633 -6.55478 35161 ft 403 kts 216°
2026-04-15 10:22 45.22787 -6.59512 35159 ft 404 kts 216°
2026-04-15 10:22 45.17937 -6.63547 35163 ft 405 kts 216°
2026-04-15 10:23 45.13076 -6.67589 35161 ft 405 kts 216°
2026-04-15 10:23 45.08210 -6.71628 35166 ft 406 kts 216°
2026-04-15 10:24 45.03328 -6.75664 35161 ft 407 kts 216°
2026-04-15 10:24 44.98433 -6.79698 35163 ft 408 kts 216°
2026-04-15 10:25 44.93533 -6.83741 35163 ft 408 kts 216°
2026-04-15 10:25 44.88620 -6.87783 35173 ft 409 kts 216°
2026-04-15 10:26 44.83644 -6.91696 35168 ft 414 kts 209°
2026-04-15 10:26 44.78083 -6.94166 35171 ft 421 kts 202°
2026-04-15 10:27 44.72446 -6.96438 35173 ft 422 kts 202°
2026-04-15 10:27 44.66798 -6.98717 35179 ft 423 kts 202°
2026-04-15 10:28 44.61142 -7.00994 35174 ft 423 kts 202°
2026-04-15 10:28 44.55468 -7.03273 35181 ft 424 kts 202°
2026-04-15 10:29 44.49788 -7.05552 35183 ft 425 kts 202°
2026-04-15 10:29 44.44093 -7.07823 35189 ft 426 kts 202°
2026-04-15 10:30 44.38388 -7.10092 35185 ft 427 kts 202°
2026-04-15 10:30 44.32712 -7.12350 35187 ft 427 kts 202°
2026-04-15 10:31 44.27425 -7.14453 35185 ft 428 kts 202°
2026-04-15 10:31 44.21690 -7.16721 35189 ft 429 kts 202°
2026-04-15 10:32 44.15953 -7.18986 35192 ft 429 kts 202°
2026-04-15 10:32 44.10241 -7.21248 35194 ft 430 kts 202°
2026-04-15 10:33 44.04482 -7.23517 35195 ft 430 kts 202°
2026-04-15 10:33 43.98708 -7.25788 35199 ft 431 kts 202°
2026-04-15 10:34 43.92930 -7.28059 35184 ft 431 kts 202°
2026-04-15 10:34 43.87146 -7.30323 35183 ft 432 kts 201°
2026-04-15 10:35 43.81358 -7.32581 35187 ft 433 kts 201°
2026-04-15 10:35 43.75555 -7.34839 35193 ft 433 kts 201°
2026-04-15 10:36 43.69749 -7.37097 35196 ft 434 kts 201°
2026-04-15 10:36 43.63932 -7.39360 35202 ft 434 kts 201°
2026-04-15 10:37 43.58112 -7.41620 35196 ft 434 kts 201°
2026-04-15 10:37 43.52383 -7.43834 35206 ft 435 kts 201°
2026-04-15 10:38 43.46548 -7.46079 35204 ft 435 kts 201°
2026-04-15 10:38 43.40710 -7.48329 35214 ft 436 kts 201°
2026-04-15 10:39 43.34902 -7.50561 35203 ft 436 kts 201°
2026-04-15 10:39 43.29055 -7.52812 35217 ft 437 kts 201°
2026-04-15 10:40 43.23198 -7.55064 35227 ft 437 kts 201°
2026-04-15 10:40 43.17372 -7.57286 35222 ft 438 kts 201°
2026-04-15 10:41 43.11495 -7.59516 35224 ft 438 kts 201°
2026-04-15 10:41 43.05620 -7.61761 35227 ft 439 kts 201°
2026-04-15 10:42 42.99729 -7.63991 35223 ft 439 kts 201°
2026-04-15 10:42 42.93842 -7.66224 35227 ft 440 kts 201°
2026-04-15 10:43 42.87942 -7.68453 35230 ft 440 kts 201°
2026-04-15 10:43 42.82038 -7.70690 35233 ft 441 kts 201°
2026-04-15 10:44 42.76122 -7.72922 35233 ft 441 kts 201°
2026-04-15 10:44 42.70200 -7.75148 35231 ft 442 kts 201°
2026-04-15 10:44 42.67221 -7.76272 34801 ft 448 kts 201°
2026-04-15 10:45 42.64210 -7.77408 34075 ft 450 kts 200°
2026-04-15 10:45 42.61190 -7.78541 33260 ft 450 kts 200°
2026-04-15 10:45 42.58168 -7.79672 32481 ft 451 kts 200°
2026-04-15 10:45 42.55144 -7.80804 31725 ft 451 kts 200°
2026-04-15 10:46 42.52122 -7.81937 30992 ft 451 kts 200°
2026-04-15 10:46 42.49096 -7.83071 30265 ft 450 kts 200°
2026-04-15 10:46 42.46078 -7.84200 29433 ft 450 kts 200°
2026-04-15 10:46 42.43063 -7.85327 28622 ft 449 kts 200°
2026-04-15 10:47 42.40062 -7.86451 27842 ft 448 kts 200°
2026-04-15 10:47 42.37059 -7.87577 27072 ft 447 kts 199°
2026-04-15 10:47 42.34068 -7.88697 26329 ft 445 kts 199°
2026-04-15 10:47 42.31091 -7.89807 25658 ft 443 kts 199°
2026-04-15 10:48 42.29128 -7.90537 25216 ft 441 kts 199°
2026-04-15 10:48 42.25232 -7.92024 24344 ft 436 kts 204°
2026-04-15 10:48 42.22559 -7.93836 23644 ft 426 kts 219°
2026-04-15 10:48 42.20210 -7.96243 22841 ft 424 kts 221°
2026-04-15 10:49 42.17886 -7.98679 22064 ft 423 kts 221°
2026-04-15 10:49 42.16318 -8.00328 21543 ft 423 kts 221°
2026-04-15 10:49 42.13995 -8.02769 20790 ft 423 kts 221°
2026-04-15 10:49 42.11678 -8.05205 20092 ft 422 kts 221°
2026-04-15 10:50 42.09370 -8.07627 19465 ft 419 kts 221°
2026-04-15 10:50 42.07109 -8.09987 18915 ft 415 kts 221°
2026-04-15 10:50 42.04839 -8.12354 18328 ft 411 kts 221°
2026-04-15 10:50 42.02588 -8.14701 17692 ft 407 kts 221°
2026-04-15 10:51 42.00359 -8.17020 17076 ft 404 kts 221°
2026-04-15 10:51 41.98149 -8.19314 16515 ft 399 kts 220°
2026-04-15 10:51 41.95958 -8.21581 15959 ft 395 kts 220°
2026-04-15 10:51 41.93789 -8.23825 15451 ft 392 kts 220°
2026-04-15 10:52 41.91646 -8.26046 14950 ft 387 kts 220°
2026-04-15 10:52 41.89533 -8.28239 14494 ft 381 kts 220°
2026-04-15 10:52 41.87447 -8.30403 14027 ft 377 kts 220°
2026-04-15 10:52 41.85388 -8.32539 13502 ft 372 kts 220°
2026-04-15 10:53 41.83350 -8.34652 12985 ft 368 kts 220°
2026-04-15 10:53 41.81334 -8.36740 12482 ft 364 kts 220°
2026-04-15 10:53 41.79340 -8.38800 11980 ft 360 kts 220°
2026-04-15 10:53 41.77363 -8.40837 11489 ft 356 kts 219°
2026-04-15 10:54 41.75411 -8.42848 11023 ft 352 kts 219°
2026-04-15 10:54 41.73538 -8.44775 10603 ft 346 kts 219°
2026-04-15 10:54 41.71641 -8.46725 10180 ft 342 kts 219°
2026-04-15 10:54 41.69765 -8.48654 9702 ft 339 kts 219°
2026-04-15 10:55 41.67901 -8.50572 9230 ft 337 kts 219°
2026-04-15 10:55 41.66048 -8.52475 8770 ft 334 kts 219°
2026-04-15 10:55 41.64211 -8.54360 8307 ft 332 kts 219°
2026-04-15 10:55 41.62382 -8.56232 7862 ft 329 kts 219°
2026-04-15 10:56 41.60586 -8.58085 7424 ft 323 kts 220°
2026-04-15 10:56 41.59109 -8.60296 7027 ft 316 kts 237°
2026-04-15 10:56 41.57931 -8.62736 6692 ft 309 kts 238°
2026-04-15 10:56 41.56824 -8.65025 6328 ft 304 kts 237°
2026-04-15 10:57 41.55692 -8.67356 5942 ft 298 kts 237°
2026-04-15 10:57 41.53475 -8.71913 5175 ft 283 kts 237°
2026-04-15 10:57 41.52181 -8.73767 4797 ft 268 kts 214°
2026-04-15 10:58 41.50493 -8.74615 4454 ft 255 kts 186°
2026-04-15 10:58 41.48798 -8.74454 4274 ft 238 kts 170°
2026-04-15 10:58 41.47219 -8.74031 4021 ft 225 kts 170°
2026-04-15 10:58 41.45718 -8.73629 3766 ft 215 kts 170°
2026-04-15 10:59 41.44272 -8.73247 3513 ft 208 kts 170°
2026-04-15 10:59 41.42873 -8.72878 3272 ft 201 kts 170°
2026-04-15 10:59 41.41549 -8.72528 3033 ft 186 kts 170°
2026-04-15 10:59 41.40335 -8.72208 2807 ft 170 kts 170°
2026-04-15 11:00 41.39218 -8.71914 2614 ft 159 kts 171°
2026-04-15 11:00 41.38184 -8.71641 2429 ft 147 kts 171°
2026-04-15 11:00 41.37207 -8.71384 2258 ft 143 kts 171°
2026-04-15 11:00 41.36224 -8.71126 2080 ft 142 kts 170°
2026-04-15 11:01 41.35271 -8.70876 1906 ft 141 kts 171°
2026-04-15 11:01 41.34312 -8.70623 1743 ft 141 kts 171°
2026-04-15 11:01 41.33352 -8.70371 1563 ft 140 kts 171°
2026-04-15 11:01 41.32400 -8.70120 1391 ft 139 kts 171°
2026-04-15 11:02 41.31450 -8.69870 1215 ft 139 kts 171°
2026-04-15 11:02 41.30506 -8.69622 1030 ft 138 kts 171°
2026-04-15 11:02 41.29567 -8.69376 850 ft 137 kts 171°
2026-04-15 11:02 41.28633 -8.69130 677 ft 136 kts 171°
2026-04-15 11:03 41.27711 -8.68888 504 ft 136 kts 171°
2026-04-15 11:03 41.26785 -8.68644 356 ft 136 kts 170°
2026-04-15 11:03 41.25859 -8.68406 210 ft 135 kts 170°
2026-04-15 11:03 41.25014 -8.68192 184 ft 103 kts 168°
2026-04-15 11:04 41.24485 -8.68050 210 ft 53 kts 168°
2026-04-15 11:04 41.24188 -8.67967 214 ft 40 kts 168°
2026-04-15 11:04 41.23955 -8.67905 223 ft 23 kts 169°
2026-04-15 11:04 41.23887 -8.67823 222 ft 13 kts 84°
2026-04-15 11:05 41.23901 -8.67733 227 ft 6 kts 79°
2026-04-15 11:05 41.23905 -8.67707 229 ft 2 kts 79°
2026-04-15 11:05 41.23908 -8.67686 234 ft 0 kts 79°
2026-04-15 11:05 41.23909 -8.67680 234 ft 2 kts 79°
2026-04-15 11:06 41.23913 -8.67652 234 ft 3 kts 79°
2026-04-15 11:06 41.23914 -8.67644 235 ft 0 kts 79°
2026-04-15 11:06 41.23916 -8.67633 235 ft 4 kts 80°
2026-04-15 11:07 41.23921 -8.67592 236 ft 3 kts 80°
2026-04-15 11:07 41.23926 -8.67555 245 ft 7 kts 80°
2026-04-15 11:07 41.23945 -8.67461 237 ft 11 kts 58°
2026-04-15 11:07 41.24004 -8.67410 237 ft 10 kts 28°
2026-04-15 11:08 41.24017 -8.67338 237 ft 8 kts 90°
2026-04-15 11:08 41.24017 -8.67305 237 ft 0 kts 90°